Location: Fort Wayne
(41.1310°N, 85.1290°W)
Time: 18:19:07
(UTC-04:00)

Cosmos 1980 - Visible Passes

Search period start: 25 April 2017 00:00
Search period end: 05 May 2017 00:00
Orbit: 840 x 847 km, 71.0° (Epoch: 24 April)

Date Brightness Start Highest point End Pass type
(mag) Time Alt. Az. Time Alt. Az. Time Alt. Az.
25 Apr 4.8 00:13:44 35° NE 00:13:44 35° NE 00:16:58 10° NNE visible
25 Apr 5.7 01:55:32 19° WNW 01:55:59 19° NW 01:59:57 10° N visible
25 Apr 4.6 23:58:52 39° NE 23:58:52 39° NE 00:02:24 10° NNE visible
26 Apr 5.7 01:40:39 19° WNW 01:41:24 20° NW 01:45:28 10° N visible
26 Apr 4.3 23:43:54 44° NE 23:43:54 44° NE 23:47:51 10° NNE visible
27 Apr 5.7 01:25:41 19° WNW 01:26:48 21° NW 01:30:59 10° N visible
27 Apr 4.0 23:28:48 51° ENE 23:28:48 51° ENE 23:33:16 10° NNE visible
28 Apr 5.7 01:10:34 19° WNW 01:12:14 21° NW 01:16:29 10° N visible
28 Apr 3.7 23:13:33 57° E 23:13:33 57° E 23:18:42 10° NNE visible
29 Apr 5.7 00:55:18 17° W 00:57:39 22° NW 01:02:00 10° N visible
29 Apr 3.7 22:58:04 54° SE 22:58:37 56° ESE 23:04:09 10° NNE visible
30 Apr 5.7 00:39:48 14° W 00:43:04 23° NW 00:47:30 10° N visible
30 Apr 3.7 22:42:13 37° SSE 22:44:04 54° ESE 22:49:35 10° NNE visible
01 May 5.7 00:24:00 10° WSW 00:28:30 24° NW 00:33:01 10° N visible
01 May 3.8 22:25:47 20° S 22:29:33 51° ESE 22:35:01 10° NNE visible
02 May 5.7 00:09:21 10° WSW 00:13:55 25° NW 00:18:31 10° N visible
02 May 3.9 22:09:37 10° S 22:15:01 49° ESE 22:20:27 10° NE visible
02 May 5.7 23:54:43 10° WSW 23:59:21 26° NW 00:04:01 10° N visible
03 May 3.9 21:55:07 10° S 22:00:28 47° ESE 22:05:52 10° NE visible
03 May 5.7 23:40:04 10° WSW 23:44:46 27° NW 23:49:31 10° N visible
04 May 4.0 21:40:38 10° S 21:45:57 45° ESE 21:51:18 10° NE visible
04 May 5.7 23:25:26 10° WSW 23:30:12 28° NW 23:35:00 10° N visible
